Regional Weather Roundup
Issued by NWS

Home | Current Version | Previous Version | Graphics & Text | Print | Product List | Glossary Off
Versions: 1 2 3 4 5 6 7 8 9 10 11 12 13 14 15 16 17 18 19 20 21 22 23 24 25 26 27 28 29 30 31 32 33 34 35 36 37 38 39 40 41 42 43 44 45 46 47 48 49 50

000
ASUS43 KDTX 200810
RWRMI
MICHIGAN HOURLY REGIONAL WEATHER ROUNDUP
NATIONAL WEATHER SERVICE DETROIT/PONTIAC MI
ISSUED BY NATIONAL WEATHER SERVICE GRAND RAPIDS MI
400 AM EDT THU JUL 20 2017

NOTE: "FAIR" INDICATES FEW OR NO CLOUDS BELOW 12,000 FEET WITH NO
SIGNIFICANT WEATHER AND/OR OBSTRUCTION TO VISIBILITY.

MIZ047>049-052>055-059>063-066>070-074>076-081>083-200900-
SOUTHEAST LOWER MICHIGAN

CITY           SKY/WX    TMP DP  RH WIND       PRES   REMARKS
ADRIAN         CLOUDY    73  69  87 S6        29.99F
ALMA           MOCLDY    69  65  88 SE5       29.95F
ANN ARBOR      MOCLDY    68  68 100 CALM      29.98F FOG
BAD AXE        CLOUDY    66  61  84 S5        30.00S
DETROIT CITY   CLOUDY    73  69  87 SE6       30.00F
DETROIT        CLOUDY    73  71  93 E3        30.00F
FLINT          MOCLDY    71  68  90 S6        29.99S
GROSSE ILE     CLOUDY    73  71  96 CALM      29.98F
HILLSDALE      PTCLDY    73  70  88 S3        29.99F
HOWELL         CLOUDY    72  70  93 SE5       29.99F

CITY           SKY/WX    TMP DP  RH WIND       PRES   REMARKS
JACKSON        MOCLDY    75  71  87 S3        29.98F
LANSING        MOCLDY    75  71  87 S5        29.99R
MASON          MOCLDY    73  72  94 S3        29.99R
MONROE         PTCLDY    72  71  96 CALM      29.98F
MT. CLEMENS    CLOUDY    71  68  91 SE7       29.98F
PONTIAC        CLOUDY    73  69  87 SE3       30.00R
PORT HOPE        N/A     68  59  73 S7        29.99S
PORT HURON     CLOUDY    64  63  94 CALM      30.00F
TRI CITIES     CLOUDY    72  71  97 S6        29.97S
YPSILANTI      CLOUDY    71  70  96 SE3       29.99F
$$
MIZ043>046-050>051-056>058-064>065-071>073-077>080-200900-
SOUTHWEST LOWER MICHIGAN

CITY           SKY/WX    TMP DP  RH WIND       PRES   REMARKS
BATTLE CREEK   CLOUDY    74  71  91 S5        29.97F
BENTON HARBOR  CLOUDY    72  66  81 SW13G24   29.92F
BIG RAPIDS     CLOUDY    66  62  85 CALM      29.95F
COLDWATER      CLOUDY    75  73  92 CALM      29.98R
HOLLAND        CLOUDY    72  65  78 W6        29.99R
GRAND RAPIDS   CLOUDY    72  69  90 SW8       29.97R
KALAMAZOO      CLOUDY    73  65  75 N6        29.98R
MARSHALL       CLOUDY    73  72  98 SE7       29.95F
MOUNT PLEASANT CLOUDY    68  64  89 CALM      29.95F
MUSKEGON       CLOUDY    71  64  78 SW6       29.97R
STURGIS        CLOUDY    72  67  86 MISG      29.97R
$$
MIZ016>042-200900-
NORTHERN LOWER MICHIGAN

CITY           SKY/WX    TMP DP  RH WIND       PRES   REMARKS
ALPENA         CLOUDY    59  58  96 CALM      29.98S
BEAVER ISLAND  CLOUDY    64  60  88 SE5       29.93F
BELLAIRE       CLOUDY    58  55  91 CALM      29.94F
CADILLAC       CLOUDY    67  56  69 S3        29.95F
CHARLEVOIX     CLOUDY    64  56  75 E6        29.96F
GAYLORD        CLOUDY    63  53  70 SE6       29.97F
HOUGHTON LAKE  CLOUDY    64  60  87 SE5       29.97F
MANISTEE       CLOUDY    67  63  87 CALM      29.93F
OSCODA         CLOUDY    62  59  91 CALM      29.98S
PELLSTON       CLOUDY    59  58  96 CALM      29.96S
TRAVERSE CITY  CLOUDY    68  56  65 W5        29.93F
LUDINGTON      LGT RAIN  68  62  79 W5        29.94F
$$
MIZ007>008-015-200900-
EASTERN UPPER MICHIGAN

CITY           SKY/WX    TMP DP  RH WIND       PRES   REMARKS
MACKINAC ISLAN CLOUDY    65  60  84 SE5       29.96S
NEWBERRY       CLOUDY    60  59  97 CALM      29.95R
S. S. MARIE    CLOUDY    63  58  83 E3        29.95F
$$
MIZ004>006-011>014-085-200900-
CENTRAL UPPER MICHIGAN

CITY           SKY/WX    TMP DP  RH WIND       PRES   REMARKS
MANISTIQUE     MOCLDY    57  54  89 CALM      29.93F
ESCANABA       CLOUDY    59  58  96 CALM      29.91F
MENOMINEE      PTCLDY    66  57  72 SW3       29.88F
SAWYER-GWINN   PTCLDY    60  56  87 SE6       29.94F
$$
MIZ001>003-009>011-084-200900-
WESTERN UPPER MICHIGAN

CITY           SKY/WX    TMP DP  RH WIND       PRES   REMARKS
IRON MOUNTAIN  PTCLDY    60  53  77 CALM      29.90F
HOUGHTON       CLEAR     58  54  86 CALM      29.89F
COPPER HARBOR    N/A     64  55  72 W8        29.88F
IRONWOOD       CLEAR     57  56  96 CALM      29.92F
$$

ABBREVIATIONS USED IN REMARKS
   TC - TEMPERATURE IN CELSIUS
  WCI - WIND CHILL INDEX
   HX - HEAT INDEX
  VSB - VISIBILITY





USA.gov is the U.S. government's official web portal to all federal, state and local government web resources and services.